AE7QG Weather Reports


time (UTC)temp
F
wind
direction
speed
knots
gust
knots
rain 1hr
in
rain 24hr
in
rain mn
in
humidity
%
barometer
mb
20220930160028 49 312 0.0 0.0 0.00 0.15 0.00 86 1019.2
20220930154536 48 312 0.0 0.0 0.00 0.15 0.00 89 1019.3
20220930153025 46 312 0.0 0.0 0.00 0.15 0.00 93 1019.3
20220930151538 46 312 0.0 0.0 0.00 0.15 0.00 93 1019.3
20220930150019 45 312 0.0 0.0 0.00 0.15 0.00 93 1019.5
20220930144523 44 312 0.0 0.0 0.00 0.15 0.00 94 1019.2
20220930143018 43 312 0.0 0.0 0.00 0.15 0.00 94 1019.4
20220930141516 42 312 0.0 0.0 0.00 0.15 0.00 93 1019.1
20220930140022 42 312 0.0 0.0 0.00 0.17 0.00 94 1019.1
20220930134533 41 312 0.0 0.0 0.00 0.17 0.00 93 1019.0
20220930133012 41 312 0.0 0.0 0.00 0.17 0.00 93 1018.8
20220930131511 41 312 0.0 0.0 0.00 0.17 0.00 93 1018.7
20220930130025 41 312 0.0 0.0 0.00 0.17 0.00 93 1018.5
20220930124507 42 312 0.0 0.0 0.00 0.17 0.00 93 1018.5
20220930123007 42 312 0.0 0.0 0.00 0.17 0.00 93 1018.2
20220930121511 42 312 0.0 0.0 0.00 0.17 0.00 93 1018.0
20220930120010 42 312 0.0 0.0 0.00 0.17 0.00 93 1018.0
20220930114621 43 312 0.0 0.0 0.00 0.17 0.00 93 1017.9
20220930113058 43 312 0.0 0.0 0.00 0.17 0.00 93 1017.8
20220930111559 43 312 0.0 0.0 0.00 0.17 0.00 93 1017.7
20220930110144 43 312 0.0 0.0 0.00 0.17 0.00 92 1017.5
20220930104609 43 312 0.0 0.0 0.00 0.17 0.00 93 1017.4
20220930103054 43 312 0.0 0.0 0.00 0.17 0.00 92 1017.5
20220930101602 44 312 0.0 0.0 0.00 0.17 0.00 92 1017.2
20220930100047 44 312 0.0 0.0 0.00 0.17 0.00 92 1016.9
20220930094547 45 312 0.0 0.0 0.00 0.17 0.00 92 1016.6
20220930093046 45 312 0.0 0.0 0.00 0.17 0.00 91 1016.4
20220930091550 46 312 0.0 0.0 0.00 0.17 0.00 91 1016.2
20220930090038 46 312 0.0 0.0 0.00 0.17 0.00 90 1016.2
20220930084557 47 312 0.0 0.0 0.00 0.17 0.00 90 1016.2
20220930083041 47 312 0.0 0.0 0.00 0.17 0.00 91 1016.1
20220930081534 47 312 0.0 0.0 0.00 0.17 0.00 90 1015.9
20220930080034 47 312 0.0 0.0 0.00 0.17 0.00 89 1016.0
20220930074533 48 312 0.0 0.0 0.00 0.17 0.00 88 1016.0
20220930073037 48 312 0.0 0.0 0.00 0.17 0.00 88 1016.0
20220930071547 48 312 0.0 0.0 0.00 0.17 0.00 88 1015.9
20220930070038 48 312 0.0 0.0 0.00 0.17 0.00 90 1016.0
20220930064532 47 312 0.0 0.0 0.00 0.17 0.00 90 1016.0
20220930063025 47 312 0.0 0.0 0.00 0.17 0.00 90 1015.8
20220930061523 47 312 0.9 1.7 0.00 0.17 0.00 90 1015.6
20220930060033 47 312 0.0 0.0 0.00 0.17 0.17 89 1015.6
20220930054529 48 312 0.0 0.0 0.00 0.17 0.17 89 1015.3
20220930053057 49 312 0.0 0.0 0.00 0.17 0.17 88 1015.4
20220930051513 50 312 0.0 0.0 0.00 0.17 0.17 86 1015.3
20220930050011 51 312 0.0 1.7 0.00 0.17 0.17 85 1015.4
20220930044510 52 312 0.0 0.0 0.00 0.17 0.17 85 1015.4
20220930043010 52 312 0.0 0.0 0.00 0.17 0.17 84 1015.5
20220930041509 52 312 0.0 0.0 0.00 0.17 0.17 86 1015.5
20220930040008 52 312 0.0 0.0 0.00 0.17 0.17 82 1015.3
20220930034514 51 312 0.0 0.0 0.00 0.17 0.17 86 1015.1
20220930033005 51 312 0.0 0.0 0.00 0.17 0.17 86 1015.0
20220930031503 51 312 0.0 0.0 0.00 0.17 0.17 85 1014.7
20220930030002 51 312 0.0 0.0 0.00 0.17 0.17 85 1014.5
20220930024600 50 312 0.0 0.0 0.00 0.17 0.17 86 1014.4
20220930023058 51 312 0.0 0.0 0.00 0.17 0.17 85 1014.1
20220930021605 51 312 0.0 0.0 0.00 0.17 0.17 84 1014.1
20220930020109 52 312 0.0 0.0 0.00 0.17 0.17 81 1014.0
20220930014555 54 312 0.0 0.0 0.00 0.17 0.17 78 1014.1
20220930013054 54 275 0.0 0.0 0.00 0.17 0.17 78 1013.9
20220930011550 55 187 0.0 0.0 0.00 0.17 0.17 74 1013.7
20220930010049 56 187 0.0 0.0 0.00 0.17 0.17 75 1013.5
20220930004554 57 187 0.0 0.0 0.00 0.17 0.17 73 1013.3
20220930003100 58 187 0.0 0.0 0.00 0.17 0.17 72 1013.3
20220930001547 59 187 0.0 0.0 0.00 0.17 0.17 70 1013.3
20220930000059 59 187 0.0 0.0 0.00 0.17 0.17 69 1013.3
20220929234547 60 187 0.0 0.0 0.00 0.17 0.17 65 1013.3
20220929233051 60 188 0.0 0.0 0.00 0.17 0.17 63 1013.3
20220929231552 60 188 0.0 1.7 0.00 0.17 0.17 65 1013.2
20220929230049 60 180 0.9 3.5 0.00 0.17 0.17 64 1013.2
20220929224543 60 11 0.0 2.6 0.00 0.17 0.17 66 1013.0
20220929223048 61 78 0.0 2.6 0.00 0.17 0.17 64 1013.0
20220929221545 62 295 0.0 2.6 0.00 0.17 0.17 60 1012.6
20220929220038 62 101 0.0 2.6 0.00 0.17 0.17 58 1012.3
20220929214537 61 180 0.0 0.9 0.00 0.17 0.17 65 1012.3
20220929213046 62 202 0.0 3.5 0.00 0.17 0.17 59 1012.3
20220929211540 62 175 1.7 5.2 0.00 0.17 0.17 58 1012.3
20220929210056 61 260 0.0 0.0 0.00 0.17 0.17 65 1012.4
20220929204534 60 162 0.0 0.0 0.00 0.17 0.17 69 1012.3
20220929203038 60 162 0.0 0.0 0.00 0.17 0.17 66 1012.5
20220929201539 61 148 0.9 4.3 0.00 0.17 0.17 62 1012.5
20220929200044 61 141 0.0 1.7 0.00 0.17 0.17 68 1012.4
20220929194530 59 142 0.0 3.5 0.00 0.17 0.17 72 1012.5
20220929193029 59 245 0.0 0.9 0.00 0.17 0.17 78 1012.4
20220929191547 59 245 0.0 1.7 0.00 0.17 0.17 78 1012.3
20220929190033 59 350 0.0 1.7 0.00 0.17 0.17 81 1012.3
20220929184537 57 30 0.0 2.6 0.01 0.17 0.17 87 1012.3
20220929183034 56 49 0.9 4.3 0.03 0.17 0.17 90 1012.2
20220929181537 53 200 0.0 0.9 0.04 0.17 0.17 93 1012.4
20220929180026 52 200 0.9 3.5 0.04 0.17 0.17 91 1012.5
20220929174551 52 173 0.0 7.0 0.04 0.16 0.16 89 1012.2
20220929173030 54 211 0.0 11.3 0.12 0.14 0.14 86 1012.1
20220929171518 56 222 0.0 1.7 0.11 0.13 0.13 92 1011.4
20220929170023 56 223 0.9 4.3 0.11 0.13 0.13 92 1011.1
20220929164521 56 65 0.9 2.6 0.10 0.12 0.12 91 1010.0
20220929163016 58 204 0.9 2.6 0.00 0.02 0.02 86 1011.2
20220929161515 58 293 0.0 0.0 0.00 0.02 0.02 88 1010.0